This demonstration page uses our WeatherBlox Daily Observations layout. Learn more.

38.89511, -77.03637

Hourly Observations for June 22, 2020

Temp ( °F °C ) Dew Point ( °F °C ) Humidity (%) Winds ( mph kmh ) Pressure ( in mb ) Visibility ( mi km ) Precip ( " mm )
12:52 am 00:52 Mostly Cloudy 74 23.3 69 20.6 85 85 S 5 7 29.98 1015 10 16.0934 0 0
1:52 am 01:52 Mostly Cloudy 73 22.8 70 21.1 90 90 S 6 9 29.98 1015 10 16.0934 0 0
2:52 am 02:52 Mostly Cloudy 73 22.8 70 21.1 90 90 S 8 13 29.98 1015 10 16.0934 0 0
3:52 am 03:52 Mostly Cloudy 72 22.2 69 20.6 91 91 SSE 5 7 29.98 1015 10 16.0934 0 0
4:52 am 04:52 Mostly Cloudy 71 21.7 68 20 90 90 S 6 9 29.98 1015 10 16.0934 0 0
5:52 am 05:52 Mostly Sunny 71 21.7 68 20 90 90 SSW 6 9 29.98 1015 10 16.0934 0 0
6:52 am 06:52 Mostly Sunny 73 22.8 69 20.6 87 87 S 7 11 29.99 1016 10 16.0934 0 0
7:52 am 07:52 Mostly Sunny 74 23.3 70 21.1 88 88 S 8 13 29.99 1016 10 16.0934 0 0
8:52 am 08:52 Mostly Sunny 77 25 71 21.7 82 82 S 10 17 29.99 1016 10 16.0934 0 0
9:52 am 09:52 Mostly Sunny 80 26.7 72 22.2 76 76 SSE 8 13 29.98 1015 10 16.0934 0 0
10:52 am 10:52 Mostly Sunny 83 28.3 72 22.2 70 70 SSE 7 11 29.97 1015 10 16.0934 0 0
11:52 am 11:52 Mostly Sunny 86 30 73 22.8 65 65 S 9 15 29.97 1015 10 16.0934 0 0
12:52 pm 12:52 Partly Cloudy 87 30.6 73 22.8 63 63 S 12 19 29.96 1015 10 16.0934 0 0
1:52 pm 13:52 Partly Cloudy 88 31.1 72 22.2 59 59 S 10 17 29.92 1013 10 16.0934 0 0
2:52 pm 14:52 Partly Cloudy 88 31.1 72 22.2 59 59 S 10 17 29.89 1012 10 16.0934 0 0
3:52 pm 15:52 Partly Cloudy with Nearby Thunderstorms 89 31.7 72 22.2 57 57 S 9 15 29.86 1011 10 16.0934 0 0
4:25 pm 16:25 Mostly Sunny 86 30 72 22.2 63 63 S 10 17 29.87 1011 10 16.0934 0 0
4:33 pm 16:33 Mostly Cloudy with Nearby Thunderstorms 86 30 72 22.2 63 63 S 9 15 29.87 1011 10 16.0934 0 0
4:52 pm 16:52 Mostly Cloudy with Nearby Thunderstorms 87 30.6 72 22.2 61 61 S 15 24 29.86 1011 10 16.0934 0 0
5:26 pm 17:26 Mostly Cloudy 79 26.1 68 20 69 69 SSE 14 22 29.88 1012 10 16.0934 0 0
5:52 pm 17:52 Mostly Cloudy 79 26.1 66 18.9 65 65 S 12 19 29.88 1012 10 16.0934 0 0
6:52 pm 18:52 Mostly Cloudy with Light Rain 78 25.6 65 18.3 64 64 SW 12 19 29.93 1014 10 16.0934 0.001 0.001
7:52 pm 19:52 Mostly Cloudy with Light Rain 75 23.9 67 19.4 76 76 S 7 11 29.93 1014 10 16.0934 0.001 0.001
8:52 pm 20:52 Mostly Cloudy with Light Rain 74 23.3 68 20 82 82 S 6 9 29.93 1014 10 16.0934 0.001 0.001
9:52 pm 21:52 Mostly Cloudy 73 22.8 68 20 84 84 SW 7 11 29.91 1013 10 16.0934 0.001 0.001
10:52 pm 22:52 Mostly Cloudy 73 22.8 67 19.4 81 81 SW 6 9 29.9 1013 10 16.0934 0 0
11:52 pm 23:52 Mostly Cloudy 73 22.8 68 20 84 84 SSW 8 13 29.89 1012 10 16.0934 0 0

Powered by AerisWeather